TimeSAST,TemperatureF,Dew PointF,Humidity,Sea Level PressureIn,VisibilityMPH,Wind Direction,Wind SpeedMPH,Gust SpeedMPH,PrecipitationIn,Events,Conditions,WindDirDegrees,DateUTC
12:00 AM,48.2,42.8,82,30.12,6.2,WNW,11.5,-,N/A,,Scattered Clouds,290,2012-11-24 22:00:00
1:00 AM,50.0,42.8,76,30.12,6.2,WNW,12.7,-,N/A,,Mostly Cloudy,300,2012-11-24 23:00:00
2:00 AM,50,42,67,30.15,19,WNW,12.7,,,,,300,2012-11-25 00:00:00
2:00 AM,50.0,42.8,76,30.12,6.2,WNW,12.7,-,N/A,,Mostly Cloudy,300,2012-11-25 00:00:00
3:00 AM,50.0,41.0,71,30.12,-9999.0,WNW,11.5,-,N/A,,Clear,300,2012-11-25 01:00:00
4:00 AM,50.0,41.0,71,30.12,6.2,WNW,10.4,-,N/A,,Mostly Cloudy,290,2012-11-25 02:00:00
5:00 AM,51.8,41.0,67,30.15,6.2,WNW,10.4,-,N/A,,Mostly Cloudy,290,2012-11-25 03:00:00
6:00 AM,51.8,41.0,67,30.18,6.2,WNW,10.4,-,N/A,,Mostly Cloudy,290,2012-11-25 04:00:00
7:00 AM,53.6,41.0,62,30.21,6.2,West,13.8,-,N/A,,Mostly Cloudy,280,2012-11-25 05:00:00
8:00 AM,56,42,47,30.24,12,WNW,17.3,,,,Partly Cloudy,290,2012-11-25 06:00:00
8:00 AM,55.4,42.8,63,30.21,6.2,WNW,17.3,-,N/A,,Scattered Clouds,290,2012-11-25 06:00:00
9:00 AM,59.0,42.8,55,30.24,6.2,West,17.3,-,N/A,,Mostly Cloudy,270,2012-11-25 07:00:00
10:00 AM,59.0,41.0,51,30.21,6.2,West,16.1,-,N/A,,Mostly Cloudy,280,2012-11-25 08:00:00
11:00 AM,62,39,31,30.25,12,West,16.1,,,,Mostly Cloudy,270,2012-11-25 09:00:00
11:00 AM,62.6,42.8,48,30.24,6.2,West,16.1,-,N/A,,Mostly Cloudy,260,2012-11-25 09:00:00
12:00 PM,62.6,42.8,48,30.24,6.2,West,12.7,-,N/A,,Mostly Cloudy,260,2012-11-25 10:00:00
1:00 PM,62.6,41.0,45,30.21,6.2,WSW,12.7,-,N/A,,Mostly Cloudy,250,2012-11-25 11:00:00
2:00 PM,61,47,50,30.22,12,SSW,15.0,,,,Mostly Cloudy,200,2012-11-25 12:00:00
2:00 PM,60.8,46.4,59,30.21,6.2,SSW,15.0,-,N/A,,Mostly Cloudy,200,2012-11-25 12:00:00
3:00 PM,62.6,46.4,55,30.21,6.2,SSW,19.6,-,N/A,,Mostly Cloudy,200,2012-11-25 13:00:00
4:00 PM,62.6,48.2,59,30.18,6.2,SSW,19.6,-,N/A,,Mostly Cloudy,200,2012-11-25 14:00:00
5:00 PM,61,47,51,30.21,12,SSW,15.0,,,,Mostly Cloudy,200,2012-11-25 15:00:00
5:00 PM,60.8,48.2,63,30.21,6.2,SSW,15.0,-,N/A,,Scattered Clouds,210,2012-11-25 15:00:00
6:00 PM,59.0,46.4,63,30.21,6.2,SSW,8.1,-,N/A,,Mostly Cloudy,210,2012-11-25 16:00:00
7:00 PM,59.0,46.4,63,30.24,6.2,SW,8.1,-,N/A,,Scattered Clouds,220,2012-11-25 17:00:00
8:00 PM,58,47,59,30.27,12,WSW,8.1,,,,Partly Cloudy,240,2012-11-25 18:00:00
8:00 PM,57.2,46.4,67,30.27,6.2,SW,8.1,-,N/A,,Scattered Clouds,230,2012-11-25 18:00:00
9:00 PM,55.4,46.4,72,30.27,6.2,West,8.1,-,N/A,,Mostly Cloudy,270,2012-11-25 19:00:00
10:00 PM,55.4,46.4,72,30.27,6.2,WNW,6.9,-,N/A,,Mostly Cloudy,300,2012-11-25 20:00:00
11:00 PM,53.6,46.4,77,30.27,6.2,NW,5.8,-,N/A,,Scattered Clouds,320,2012-11-25 21:00:00